Time,TemperatureF,DewpointF,PressureIn,WindDirection,WindDirectionDegrees,WindSpeedMPH,WindSpeedGustMPH,Humidity,HourlyPrecipIn,Conditions,Clouds,dailyrainin,SoftwareType,DateUTC
2013-04-19 00:01:00,47.7,37.3,29.91,North,0,2.2,4.5,67,0.00,,,0.00,WUHU216HW,2013-04-19 05:01:00,
2013-04-19 00:06:00,47.7,37.3,29.91,NNW,338,1.1,2.5,67,0.00,,,0.00,WUHU216HW,2013-04-19 05:06:00,
2013-04-19 00:11:00,47.5,37.1,29.92,NNE,23,3.6,3.6,67,0.00,,,0.00,WUHU216HW,2013-04-19 05:11:00,
2013-04-19 00:16:00,47.3,36.9,29.92,SW,225,1.1,3.6,67,0.00,,,0.00,WUHU216HW,2013-04-19 05:16:00,
2013-04-19 00:21:00,47.0,36.5,29.92,WSW,248,0.2,2.7,67,0.00,,,0.00,WUHU216HW,2013-04-19 05:21:00,
2013-04-19 00:26:00,46.6,36.6,29.92,NNE,23,0.4,0.7,68,0.00,,,0.00,WUHU216HW,2013-04-19 05:26:00,
2013-04-19 00:31:00,46.3,36.3,29.93,North,0,0.0,1.8,68,0.00,,,0.00,WUHU216HW,2013-04-19 05:31:00,
2013-04-19 00:36:00,46.1,36.1,29.93,NNE,23,0.0,1.8,68,0.00,,,0.00,WUHU216HW,2013-04-19 05:36:00,
2013-04-19 00:41:00,45.5,35.6,29.93,NNE,23,0.7,0.7,68,0.00,,,0.00,WUHU216HW,2013-04-19 05:41:00,
2013-04-19 00:46:00,45.2,35.7,29.93,NW,315,0.0,0.7,69,0.00,,,0.00,WUHU216HW,2013-04-19 05:46:00,
2013-04-19 00:51:00,44.8,35.6,29.93,WNW,293,0.2,0.4,70,0.00,,,0.00,WUHU216HW,2013-04-19 05:51:00,
2013-04-19 00:56:00,44.5,35.7,29.93,NE,45,0.0,1.8,71,0.00,,,0.00,WUHU216HW,2013-04-19 05:56:00,
2013-04-19 01:01:00,44.3,35.8,29.93,North,0,0.4,1.8,72,0.00,,,0.00,WUHU216HW,2013-04-19 06:01:00,
2013-04-19 01:06:00,44.5,36.0,29.93,NNE,23,1.8,2.7,72,0.00,,,0.00,WUHU216HW,2013-04-19 06:06:00,
2013-04-19 01:11:00,44.6,36.2,29.93,North,0,1.8,5.4,72,0.00,,,0.00,WUHU216HW,2013-04-19 06:11:00,
2013-04-19 01:16:00,44.8,36.4,29.94,NE,45,0.4,5.4,72,0.00,,,0.00,WUHU216HW,2013-04-19 06:16:00,
2013-04-19 01:21:00,44.8,36.4,29.94,North,0,1.3,1.3,72,0.00,,,0.00,WUHU216HW,2013-04-19 06:21:00,
2013-04-19 01:26:00,44.5,36.0,29.94,West,270,0.0,1.3,72,0.00,,,0.00,WUHU216HW,2013-04-19 06:26:00,
2013-04-19 01:31:00,44.3,35.8,29.94,NE,45,0.9,2.0,72,0.00,,,0.00,WUHU216HW,2013-04-19 06:31:00,
2013-04-19 01:36:00,44.1,35.6,29.94,NNW,338,0.4,2.0,72,0.00,,,0.00,WUHU216HW,2013-04-19 06:36:00,
2013-04-19 01:41:00,43.9,35.5,29.95,West,270,0.2,1.6,72,0.00,,,0.00,WUHU216HW,2013-04-19 06:41:00,
2013-04-19 01:46:00,43.9,35.8,29.95,NW,315,0.4,1.6,73,0.00,,,0.00,WUHU216HW,2013-04-19 06:46:00,
2013-04-19 01:51:00,43.9,35.8,29.96,ENE,68,1.3,3.4,73,0.00,,,0.00,WUHU216HW,2013-04-19 06:51:00,
2013-04-19 01:56:00,43.9,35.5,29.96,NE,45,0.0,3.6,72,0.00,,,0.00,WUHU216HW,2013-04-19 06:56:00,
2013-04-19 02:01:00,43.7,35.0,29.96,North,0,0.0,3.6,71,0.00,,,0.00,WUHU216HW,2013-04-19 07:01:00,
2013-04-19 02:06:00,43.6,34.8,29.96,ENE,68,1.8,3.4,71,0.00,,,0.00,WUHU216HW,2013-04-19 07:06:00,
2013-04-19 02:11:00,43.6,34.8,29.97,West,270,1.1,2.0,71,0.00,,,0.00,WUHU216HW,2013-04-19 07:11:00,
2013-04-19 02:16:00,43.6,35.2,29.97,WSW,248,0.4,2.2,72,0.00,,,0.00,WUHU216HW,2013-04-19 07:16:00,
2013-04-19 02:21:00,43.4,35.0,29.97,ENE,68,0.2,2.2,72,0.00,,,0.00,WUHU216HW,2013-04-19 07:21:00,
2013-04-19 02:26:00,43.2,34.8,29.97,North,0,0.0,1.1,72,0.00,,,0.00,WUHU216HW,2013-04-19 07:26:00,
2013-04-19 02:31:00,42.7,34.3,29.97,North,0,0.0,0.7,72,0.00,,,0.00,WUHU216HW,2013-04-19 07:31:00,
2013-04-19 02:36:00,42.1,33.8,29.97,North,0,0.0,1.1,72,0.00,,,0.00,WUHU216HW,2013-04-19 07:36:00,
2013-04-19 02:41:00,41.6,33.2,29.97,North,0,0.0,1.1,72,0.00,,,0.00,WUHU216HW,2013-04-19 07:41:00,
2013-04-19 02:46:00,41.0,33.3,29.97,North,0,1.1,1.1,74,0.00,,,0.00,WUHU216HW,2013-04-19 07:46:00,
2013-04-19 02:51:00,40.7,33.0,29.97,North,0,0.0,1.1,74,0.00,,,0.00,WUHU216HW,2013-04-19 07:51:00,
2013-04-19 02:56:00,40.0,32.3,29.97,North,0,0.0,0.4,74,0.00,,,0.00,WUHU216HW,2013-04-19 07:56:00,
2013-04-19 03:01:00,39.8,32.5,29.97,NNW,338,0.4,1.1,75,0.00,,,0.00,WUHU216HW,2013-04-19 08:01:00,
2013-04-19 03:06:00,39.4,32.5,29.98,NNW,338,0.9,1.1,76,0.00,,,0.00,WUHU216HW,2013-04-19 08:06:00,
2013-04-19 03:11:00,39.2,32.7,29.98,WNW,293,0.7,0.9,77,0.00,,,0.00,WUHU216HW,2013-04-19 08:11:00,
2013-04-19 03:16:00,39.1,32.5,29.99,WNW,293,0.0,0.9,77,0.00,,,0.00,WUHU216HW,2013-04-19 08:16:00,
2013-04-19 03:21:00,38.9,32.6,29.98,WNW,293,0.0,0.0,78,0.00,,,0.00,WUHU216HW,2013-04-19 08:21:00,
2013-04-19 03:26:00,38.5,32.3,29.99,WNW,293,0.0,0.4,78,0.00,,,0.00,WUHU216HW,2013-04-19 08:26:00,
2013-04-19 03:31:00,38.2,31.6,29.99,WNW,293,0.0,0.4,77,0.00,,,0.00,WUHU216HW,2013-04-19 08:31:00,
2013-04-19 03:36:00,38.2,32.0,29.99,WNW,293,0.2,0.7,78,0.00,,,0.00,WUHU216HW,2013-04-19 08:36:00,
2013-04-19 03:41:00,38.0,31.8,29.99,WNW,293,0.2,0.7,78,0.00,,,0.00,WUHU216HW,2013-04-19 08:41:00,
2013-04-19 03:46:00,37.8,31.6,29.99,WNW,293,0.4,1.1,78,0.00,,,0.00,WUHU216HW,2013-04-19 08:46:00,
2013-04-19 03:51:00,37.8,31.9,29.99,WNW,293,0.4,1.1,79,0.00,,,0.00,WUHU216HW,2013-04-19 08:51:00,
2013-04-19 03:56:00,38.0,32.4,29.99,West,270,0.0,1.1,80,0.00,,,0.00,WUHU216HW,2013-04-19 08:56:00,
2013-04-19 04:01:00,38.3,32.8,29.99,WNW,293,0.9,1.8,80,0.00,,,0.00,WUHU216HW,2013-04-19 09:01:00,
2013-04-19 04:06:00,38.7,33.4,29.99,NW,315,1.3,1.8,81,0.00,,,0.00,WUHU216HW,2013-04-19 09:06:00,
2013-04-19 04:11:00,39.1,33.8,29.99,SSW,203,0.9,2.2,81,0.00,,,0.00,WUHU216HW,2013-04-19 09:11:00,
2013-04-19 04:16:00,39.2,33.7,29.99,West,270,1.1,2.2,80,0.00,,,0.00,WUHU216HW,2013-04-19 09:16:00,
2013-04-19 04:21:00,39.2,33.7,29.99,WSW,248,1.1,2.0,80,0.00,,,0.00,WUHU216HW,2013-04-19 09:21:00,
2013-04-19 04:26:00,39.2,33.7,30.00,West,270,1.1,1.6,80,0.00,,,0.00,WUHU216HW,2013-04-19 09:26:00,
2013-04-19 04:31:00,39.2,33.7,30.00,NNW,338,0.9,1.6,80,0.00,,,0.00,WUHU216HW,2013-04-19 09:31:00,
2013-04-19 04:36:00,39.2,33.7,30.00,West,270,0.4,1.8,80,0.00,,,0.00,WUHU216HW,2013-04-19 09:36:00,
2013-04-19 04:41:00,39.1,33.5,30.00,WSW,248,1.8,1.8,80,0.00,,,0.00,WUHU216HW,2013-04-19 09:41:00,
2013-04-19 04:46:00,38.9,33.3,30.00,West,270,1.8,1.8,80,0.00,,,0.00,WUHU216HW,2013-04-19 09:46:00,
2013-04-19 04:51:00,38.9,33.3,30.00,West,270,0.2,1.8,80,0.00,,,0.00,WUHU216HW,2013-04-19 09:51:00,
2013-04-19 04:56:00,38.9,33.3,30.01,West,270,0.0,1.6,80,0.00,,,0.00,WUHU216HW,2013-04-19 09:56:00,
2013-04-19 05:01:00,38.9,33.3,30.00,WSW,248,1.3,1.3,80,0.00,,,0.00,WUHU216HW,2013-04-19 10:01:00,
2013-04-19 05:06:00,39.1,33.5,30.01,WSW,248,1.1,1.3,80,0.00,,,0.00,WUHU216HW,2013-04-19 10:06:00,
2013-04-19 05:11:00,39.2,33.7,30.01,West,270,0.4,1.3,80,0.00,,,0.00,WUHU216HW,2013-04-19 10:11:00,
2013-04-19 05:16:00,39.2,33.7,30.01,West,270,0.2,2.0,80,0.00,,,0.00,WUHU216HW,2013-04-19 10:16:00,
2013-04-19 05:21:00,39.1,33.5,30.01,WSW,248,0.0,2.0,80,0.00,,,0.00,WUHU216HW,2013-04-19 10:21:00,
2013-04-19 05:26:00,39.1,33.1,30.01,SW,225,1.1,2.0,79,0.00,,,0.00,WUHU216HW,2013-04-19 10:26:00,
2013-04-19 05:31:00,39.2,33.7,30.01,WNW,293,1.3,2.5,80,0.00,,,0.00,WUHU216HW,2013-04-19 10:31:00,
2013-04-19 05:36:00,39.2,33.3,30.01,WSW,248,1.3,2.5,79,0.00,,,0.00,WUHU216HW,2013-04-19 10:36:00,
2013-04-19 05:41:00,39.2,33.3,30.01,West,270,1.3,2.5,79,0.00,,,0.00,WUHU216HW,2013-04-19 10:41:00,
2013-04-19 05:46:00,39.4,33.5,30.02,West,270,2.5,2.5,79,0.00,,,0.00,WUHU216HW,2013-04-19 10:46:00,
2013-04-19 05:51:00,39.4,33.5,30.01,West,270,2.2,2.5,79,0.00,,,0.00,WUHU216HW,2013-04-19 10:51:00,
2013-04-19 05:56:00,39.4,33.5,30.02,WNW,293,0.7,2.2,79,0.00,,,0.00,WUHU216HW,2013-04-19 10:56:00,
2013-04-19 06:01:00,39.4,33.5,30.02,NNW,338,0.4,3.1,79,0.00,,,0.00,WUHU216HW,2013-04-19 11:01:00,
2013-04-19 06:06:00,39.6,33.7,30.02,West,270,2.0,3.1,79,0.00,,,0.00,WUHU216HW,2013-04-19 11:06:00,
2013-04-19 06:11:00,39.6,33.7,30.02,WNW,293,2.0,2.2,79,0.00,,,0.00,WUHU216HW,2013-04-19 11:11:00,
2013-04-19 06:16:00,39.4,33.5,30.02,NW,315,2.2,2.2,79,0.00,,,0.00,WUHU216HW,2013-04-19 11:16:00,
2013-04-19 06:21:00,39.4,33.5,30.02,West,270,0.4,2.2,79,0.00,,,0.00,WUHU216HW,2013-04-19 11:21:00,
2013-04-19 06:26:00,39.4,33.1,30.02,West,270,1.1,1.8,78,0.00,,,0.00,WUHU216HW,2013-04-19 11:26:00,
2013-04-19 06:31:00,39.4,33.1,30.01,West,270,1.8,1.8,78,0.00,,,0.00,WUHU216HW,2013-04-19 11:31:00,
2013-04-19 06:36:00,39.4,33.1,30.01,NNW,338,2.2,2.2,78,0.00,,,0.00,WUHU216HW,2013-04-19 11:36:00,
2013-04-19 06:41:00,39.4,33.1,30.01,WSW,248,0.2,2.2,78,0.00,,,0.00,WUHU216HW,2013-04-19 11:41:00,
2013-04-19 06:46:00,39.4,33.1,30.02,ESE,113,1.8,2.2,78,0.00,,,0.00,WUHU216HW,2013-04-19 11:46:00,
2013-04-19 06:51:00,39.4,33.1,30.02,West,270,1.3,2.0,78,0.00,,,0.00,WUHU216HW,2013-04-19 11:51:00,
2013-04-19 06:56:00,39.4,33.1,30.02,SW,225,1.1,1.6,78,0.00,,,0.00,WUHU216HW,2013-04-19 11:56:00,
2013-04-19 07:01:00,39.4,33.1,30.02,West,270,0.2,1.8,78,0.00,,,0.00,WUHU216HW,2013-04-19 12:01:00,
2013-04-19 07:06:00,39.4,33.1,30.03,SSE,158,0.2,1.8,78,0.00,,,0.00,WUHU216HW,2013-04-19 12:06:00,
2013-04-19 07:11:00,39.4,33.1,30.03,West,270,0.4,1.3,78,0.00,,,0.00,WUHU216HW,2013-04-19 12:11:00,
2013-04-19 07:16:00,39.2,32.9,30.03,WNW,293,0.4,2.0,78,0.00,,,0.00,WUHU216HW,2013-04-19 12:16:00,
2013-04-19 07:21:00,39.2,32.9,30.03,West,270,0.9,2.0,78,0.00,,,0.00,WUHU216HW,2013-04-19 12:21:00,
2013-04-19 07:26:00,39.4,33.1,30.04,West,270,0.4,1.8,78,0.00,,,0.00,WUHU216HW,2013-04-19 12:26:00,
2013-04-19 07:31:00,39.8,33.5,30.04,West,270,0.4,1.3,78,0.00,,,0.00,WUHU216HW,2013-04-19 12:31:00,
2013-04-19 07:36:00,40.3,33.9,30.04,NW,315,1.1,2.5,78,0.00,,,0.00,WUHU216HW,2013-04-19 12:36:00,
2013-04-19 07:41:00,40.7,33.9,30.04,NW,315,1.8,2.5,77,0.00,,,0.00,WUHU216HW,2013-04-19 12:41:00,
2013-04-19 07:46:00,41.2,34.5,30.04,WNW,293,1.8,2.5,77,0.00,,,0.00,WUHU216HW,2013-04-19 12:46:00,
2013-04-19 07:51:00,41.9,35.2,30.04,NNW,338,0.7,2.5,77,0.00,,,0.00,WUHU216HW,2013-04-19 12:51:00,
2013-04-19 07:56:00,43.9,36.8,30.04,North,0,1.1,1.8,76,0.00,,,0.00,WUHU216HW,2013-04-19 12:56:00,
2013-04-19 08:01:00,48.8,41.1,30.05,WNW,293,1.3,1.8,75,0.00,,,0.00,WUHU216HW,2013-04-19 13:01:00,
2013-04-19 08:06:00,52.6,43.8,30.05,West,270,2.0,3.8,72,0.00,,,0.00,WUHU216HW,2013-04-19 13:06:00,
2013-04-19 08:11:00,56.0,46.0,30.05,West,270,0.4,3.8,69,0.00,,,0.00,WUHU216HW,2013-04-19 13:11:00,
2013-04-19 08:16:00,59.6,47.8,30.06,WNW,293,0.7,2.9,65,0.00,,,0.00,WUHU216HW,2013-04-19 13:16:00,
2013-04-19 08:21:00,62.5,49.2,30.06,WNW,293,1.1,2.9,62,0.00,,,0.00,WUHU216HW,2013-04-19 13:21:00,
2013-04-19 08:26:00,64.8,49.2,30.06,WNW,293,0.4,1.1,57,0.00,,,0.00,WUHU216HW,2013-04-19 13:26:00,
2013-04-19 08:31:00,67.0,49.2,30.06,NNE,23,1.8,2.9,53,0.00,,,0.00,WUHU216HW,2013-04-19 13:31:00,
2013-04-19 08:36:00,68.4,49.2,30.06,WNW,293,1.6,2.9,50,0.00,,,0.00,WUHU216HW,2013-04-19 13:36:00,
2013-04-19 08:41:00,69.5,48.3,30.06,WSW,248,1.8,2.7,47,0.00,,,0.00,WUHU216HW,2013-04-19 13:41:00,
2013-04-19 08:46:00,70.2,47.8,30.07,WNW,293,3.1,3.1,45,0.00,,,0.00,WUHU216HW,2013-04-19 13:46:00,
2013-04-19 08:51:00,70.2,47.2,30.07,West,270,1.1,3.4,44,0.00,,,0.00,WUHU216HW,2013-04-19 13:51:00,
2013-04-19 08:56:00,70.9,45.5,30.07,NNE,23,1.8,3.6,40,0.00,,,0.00,WUHU216HW,2013-04-19 13:56:00,
2013-04-19 09:01:00,70.7,43.8,30.07,NNW,338,1.1,5.6,38,0.00,,,0.00,WUHU216HW,2013-04-19 14:01:00,
2013-04-19 09:06:00,70.7,43.8,30.07,WNW,293,1.1,5.6,38,0.00,,,0.00,WUHU216HW,2013-04-19 14:06:00,
2013-04-19 09:11:00,71.3,41.3,30.07,NNW,338,4.3,4.3,34,0.00,,,0.00,WUHU216HW,2013-04-19 14:11:00,
2013-04-19 09:16:00,70.9,41.1,30.07,WNW,293,1.8,6.3,34,0.00,,,0.00,WUHU216HW,2013-04-19 14:16:00,
2013-04-19 09:21:00,72.0,42.7,30.07,NW,315,2.2,6.3,35,0.00,,,0.00,WUHU216HW,2013-04-19 14:21:00,
2013-04-19 09:26:00,72.9,41.2,30.07,WSW,248,1.3,4.5,32,0.00,,,0.00,WUHU216HW,2013-04-19 14:26:00,
2013-04-19 09:31:00,73.4,42.4,30.07,NE,45,8.5,8.5,33,0.00,,,0.00,WUHU216HW,2013-04-19 14:31:00,
2013-04-19 09:36:00,73.3,40.8,30.08,NW,315,1.8,8.5,31,0.00,,,0.00,WUHU216HW,2013-04-19 14:36:00,
2013-04-19 09:41:00,73.3,39.0,30.08,NE,45,4.0,4.7,29,0.00,,,0.00,WUHU216HW,2013-04-19 14:41:00,
2013-04-19 09:46:00,72.7,38.5,30.08,South,180,1.8,4.7,29,0.00,,,0.00,WUHU216HW,2013-04-19 14:46:00,
2013-04-19 09:51:00,73.3,40.0,30.08,NW,315,3.6,4.5,30,0.00,,,0.00,WUHU216HW,2013-04-19 14:51:00,
2013-04-19 09:56:00,73.3,40.0,30.08,NW,315,4.0,4.5,30,0.00,,,0.00,WUHU216HW,2013-04-19 14:56:00,
2013-04-19 10:01:00,73.8,39.4,30.08,NE,45,4.5,5.6,29,0.00,,,0.00,WUHU216HW,2013-04-19 15:01:00,
2013-04-19 10:06:00,74.5,39.1,30.07,NW,315,2.5,5.6,28,0.00,,,0.00,WUHU216HW,2013-04-19 15:06:00,
2013-04-19 10:11:00,75.1,40.6,30.08,North,0,3.4,4.0,29,0.00,,,0.00,WUHU216HW,2013-04-19 15:11:00,
2013-04-19 10:16:00,76.5,40.9,30.08,SW,225,2.5,4.0,28,0.00,,,0.00,WUHU216HW,2013-04-19 15:16:00,
2013-04-19 10:21:00,74.9,36.4,30.08,WNW,293,4.9,4.9,25,0.00,,,0.00,WUHU216HW,2013-04-19 15:21:00,
2013-04-19 10:26:00,74.2,36.7,30.08,NW,315,6.3,6.3,26,0.00,,,0.00,WUHU216HW,2013-04-19 15:26:00,
2013-04-19 10:31:00,75.1,37.5,30.08,NE,45,1.3,6.3,26,0.00,,,0.00,WUHU216HW,2013-04-19 15:31:00,
2013-04-19 10:36:00,75.8,39.2,30.08,West,270,1.6,5.4,27,0.00,,,0.00,WUHU216HW,2013-04-19 15:36:00,
2013-04-19 10:41:00,75.4,36.8,30.08,West,270,2.5,5.4,25,0.00,,,0.00,WUHU216HW,2013-04-19 15:41:00,
2013-04-19 10:46:00,75.6,38.0,30.08,NE,45,2.2,6.3,26,0.00,,,0.00,WUHU216HW,2013-04-19 15:46:00,
2013-04-19 10:51:00,76.0,37.3,30.08,NNW,338,4.5,6.3,25,0.00,,,0.00,WUHU216HW,2013-04-19 15:51:00,
2013-04-19 10:56:00,75.8,37.1,30.08,WNW,293,1.3,4.9,25,0.00,,,0.00,WUHU216HW,2013-04-19 15:56:00,
2013-04-19 11:01:00,75.4,35.7,30.08,North,0,3.1,5.8,24,0.00,,,0.00,WUHU216HW,2013-04-19 16:01:00,
2013-04-19 11:06:00,76.1,37.4,30.08,SW,225,3.4,5.8,25,0.00,,,0.00,WUHU216HW,2013-04-19 16:06:00,
2013-04-19 11:11:00,76.7,37.9,30.09,NNE,23,1.1,5.6,25,0.00,,,0.00,WUHU216HW,2013-04-19 16:11:00,
2013-04-19 11:16:00,77.0,37.1,30.09,NW,315,1.1,5.4,24,0.00,,,0.00,WUHU216HW,2013-04-19 16:16:00,
2013-04-19 11:21:00,75.6,34.9,30.09,WSW,248,3.8,5.4,23,0.00,,,0.00,WUHU216HW,2013-04-19 16:21:00,
2013-04-19 11:26:00,74.2,33.7,30.09,WSW,248,2.5,5.4,23,0.00,,,0.00,WUHU216HW,2013-04-19 16:26:00,
2013-04-19 11:31:00,74.5,35.0,30.09,NNW,338,4.7,5.4,24,0.00,,,0.00,WUHU216HW,2013-04-19 16:31:00,
2013-04-19 11:36:00,75.1,34.5,30.09,NNE,23,4.5,6.3,23,0.00,,,0.00,WUHU216HW,2013-04-19 16:36:00,
2013-04-19 11:41:00,74.3,33.9,30.09,North,0,1.6,6.3,23,0.00,,,0.00,WUHU216HW,2013-04-19 16:41:00,
2013-04-19 11:46:00,73.4,34.1,30.09,NE,45,6.3,6.3,24,0.00,,,0.00,WUHU216HW,2013-04-19 16:46:00,
2013-04-19 11:51:00,74.5,37.1,30.08,West,270,3.4,6.3,26,0.00,,,0.00,WUHU216HW,2013-04-19 16:51:00,
2013-04-19 11:56:00,76.3,37.5,30.08,NNW,338,5.4,5.4,25,0.00,,,0.00,WUHU216HW,2013-04-19 16:56:00,
2013-04-19 12:01:00,77.4,38.4,30.08,SW,225,1.1,5.4,25,0.00,,,0.00,WUHU216HW,2013-04-19 17:01:00,
2013-04-19 12:06:00,77.2,38.4,30.08,East,90,1.1,4.3,25,0.00,,,0.00,WUHU216HW,2013-04-19 17:06:00,
2013-04-19 12:11:00,76.9,37.0,30.08,North,0,4.5,9.2,24,0.00,,,0.00,WUHU216HW,2013-04-19 17:11:00,
2013-04-19 12:16:00,75.4,34.8,30.08,NNW,338,1.8,9.2,23,0.00,,,0.00,WUHU216HW,2013-04-19 17:16:00,
2013-04-19 12:21:00,74.7,34.1,30.07,WSW,248,3.4,6.0,23,0.00,,,0.00,WUHU216HW,2013-04-19 17:21:00,
2013-04-19 12:26:00,75.1,36.5,30.07,ENE,68,1.8,6.0,25,0.00,,,0.00,WUHU216HW,2013-04-19 17:26:00,
2013-04-19 12:31:00,75.6,36.9,30.07,WNW,293,3.4,5.4,25,0.00,,,0.00,WUHU216HW,2013-04-19 17:31:00,
2013-04-19 12:36:00,76.5,37.7,30.07,ESE,113,2.2,5.4,25,0.00,,,0.00,WUHU216HW,2013-04-19 17:36:00,
2013-04-19 12:41:00,76.5,35.7,30.07,NE,45,3.6,6.9,23,0.00,,,0.00,WUHU216HW,2013-04-19 17:41:00,
2013-04-19 12:46:00,75.4,33.7,30.07,ENE,68,5.4,7.8,22,0.00,,,0.00,WUHU216HW,2013-04-19 17:46:00,
2013-04-19 12:51:00,74.2,32.7,30.07,East,90,4.9,7.8,22,0.00,,,0.00,WUHU216HW,2013-04-19 17:51:00,
2013-04-19 12:56:00,74.0,33.6,30.07,NNE,23,2.7,7.4,23,0.00,,,0.00,WUHU216HW,2013-04-19 17:56:00,
2013-04-19 13:01:00,74.3,33.9,30.07,East,90,6.3,11.4,23,0.00,,,0.00,WUHU216HW,2013-04-19 18:01:00,
2013-04-19 13:06:00,74.5,34.0,30.07,North,0,2.2,11.4,23,0.00,,,0.00,WUHU216HW,2013-04-19 18:06:00,
2013-04-19 13:11:00,75.1,33.4,30.07,NW,315,1.1,6.3,22,0.00,,,0.00,WUHU216HW,2013-04-19 18:11:00,
2013-04-19 13:16:00,74.9,33.3,30.07,NE,45,4.0,6.0,22,0.00,,,0.00,WUHU216HW,2013-04-19 18:16:00,
2013-04-19 13:21:00,73.4,28.5,30.06,NE,45,4.0,6.3,19,0.00,,,0.00,WUHU216HW,2013-04-19 18:21:00,
2013-04-19 13:26:00,73.8,33.4,30.06,NE,45,5.1,6.3,23,0.00,,,0.00,WUHU216HW,2013-04-19 18:26:00,
2013-04-19 13:31:00,74.3,34.8,30.06,NW,315,5.4,6.0,24,0.00,,,0.00,WUHU216HW,2013-04-19 18:31:00,
2013-04-19 13:36:00,75.1,35.5,30.06,NW,315,3.6,6.0,24,0.00,,,0.00,WUHU216HW,2013-04-19 18:36:00,
2013-04-19 13:41:00,75.8,35.0,30.05,NW,315,3.6,4.3,23,0.00,,,0.00,WUHU216HW,2013-04-19 18:41:00,
2013-04-19 13:46:00,75.2,32.5,30.05,North,0,5.1,9.8,21,0.00,,,0.00,WUHU216HW,2013-04-19 18:46:00,
2013-04-19 13:51:00,74.5,34.0,30.05,NNW,338,5.4,9.8,23,0.00,,,0.00,WUHU216HW,2013-04-19 18:51:00,
2013-04-19 13:56:00,75.2,35.7,30.05,NNW,338,1.8,5.4,24,0.00,,,0.00,WUHU216HW,2013-04-19 18:56:00,
2013-04-19 14:01:00,75.6,33.8,30.05,NNE,23,2.9,4.7,22,0.00,,,0.00,WUHU216HW,2013-04-19 19:01:00,
2013-04-19 14:06:00,74.5,34.0,30.05,NNE,23,1.6,8.9,23,0.00,,,0.00,WUHU216HW,2013-04-19 19:06:00,
2013-04-19 14:11:00,75.6,34.9,30.04,NNW,338,4.5,8.9,23,0.00,,,0.00,WUHU216HW,2013-04-19 19:11:00,
2013-04-19 14:16:00,75.8,35.0,30.04,North,0,1.8,7.2,23,0.00,,,0.00,WUHU216HW,2013-04-19 19:16:00,
2013-04-19 14:21:00,75.2,34.6,30.04,NNW,338,1.8,7.2,23,0.00,,,0.00,WUHU216HW,2013-04-19 19:21:00,
2013-04-19 14:26:00,75.4,34.8,30.04,WNW,293,4.7,6.3,23,0.00,,,0.00,WUHU216HW,2013-04-19 19:26:00,
2013-04-19 14:31:00,74.2,32.7,30.04,NNE,23,3.6,6.3,22,0.00,,,0.00,WUHU216HW,2013-04-19 19:31:00,
2013-04-19 14:36:00,73.1,31.8,30.03,NE,45,6.0,6.3,22,0.00,,,0.00,WUHU216HW,2013-04-19 19:36:00,
2013-04-19 14:41:00,72.9,32.6,30.03,NE,45,7.6,7.6,23,0.00,,,0.00,WUHU216HW,2013-04-19 19:41:00,
2013-04-19 14:46:00,72.4,33.1,30.02,NW,315,2.0,8.3,24,0.00,,,0.00,WUHU216HW,2013-04-19 19:46:00,
2013-04-19 14:51:00,72.7,31.4,30.02,NW,315,4.0,8.3,22,0.00,,,0.00,WUHU216HW,2013-04-19 19:51:00,
2013-04-19 14:56:00,72.7,32.5,30.02,WNW,293,4.9,5.8,23,0.00,,,0.00,WUHU216HW,2013-04-19 19:56:00,
2013-04-19 15:01:00,73.1,32.8,30.02,East,90,2.2,4.9,23,0.00,,,0.00,WUHU216HW,2013-04-19 20:01:00,
2013-04-19 15:06:00,71.1,31.1,30.02,WSW,248,2.5,7.8,23,0.00,,,0.00,WUHU216HW,2013-04-19 20:06:00,
2013-04-19 15:11:00,69.7,29.9,30.02,NNE,23,3.6,7.8,23,0.00,,,0.00,WUHU216HW,2013-04-19 20:11:00,
2013-04-19 15:16:00,69.5,32.8,30.02,NNW,338,5.4,7.2,26,0.00,,,0.00,WUHU216HW,2013-04-19 20:16:00,
2013-04-19 15:21:00,69.5,31.8,30.02,NE,45,4.5,5.4,25,0.00,,,0.00,WUHU216HW,2013-04-19 20:21:00,
2013-04-19 15:25:00,69.7,32.9,30.01,NW,315,2.9,4.5,26,0.00,,,0.00,WUHU216HW,2013-04-19 20:25:00,
2013-04-19 15:30:00,70.0,32.2,30.01,NNW,338,2.0,5.4,25,0.00,,,0.00,WUHU216HW,2013-04-19 20:30:00,
2013-04-19 15:35:00,69.8,32.0,30.00,NW,315,1.3,5.4,25,0.00,,,0.00,WUHU216HW,2013-04-19 20:35:00,
2013-04-19 15:40:00,69.8,33.0,30.00,WNW,293,1.1,4.0,26,0.00,,,0.00,WUHU216HW,2013-04-19 20:40:00,
2013-04-19 15:45:00,69.5,31.8,30.00,NE,45,4.3,4.7,25,0.00,,,0.00,WUHU216HW,2013-04-19 20:45:00,
2013-04-19 15:50:00,68.9,29.3,29.99,SW,225,6.5,9.6,23,0.00,,,0.00,WUHU216HW,2013-04-19 20:50:00,
2013-04-19 15:55:00,68.4,31.8,29.99,NW,315,1.1,9.6,26,0.00,,,0.00,WUHU216HW,2013-04-19 20:55:00,
2013-04-19 16:00:00,68.4,31.8,29.99,WNW,293,2.5,6.0,26,0.00,,,0.00,WUHU216HW,2013-04-19 21:00:00,
2013-04-19 16:05:00,68.4,31.8,29.99,ENE,68,2.7,6.0,26,0.00,,,0.00,WUHU216HW,2013-04-19 21:05:00,
2013-04-19 16:10:00,68.6,32.0,29.98,NW,315,4.0,6.3,26,0.00,,,0.00,WUHU216HW,2013-04-19 21:10:00,
2013-04-19 16:15:00,67.9,30.3,29.98,NE,45,0.9,6.3,25,0.00,,,0.00,WUHU216HW,2013-04-19 21:15:00,
2013-04-19 16:20:00,67.7,30.3,29.97,ENE,68,4.7,7.6,25,0.00,,,0.00,WUHU216HW,2013-04-19 21:20:00,
2013-04-19 16:25:00,67.5,32.0,29.98,West,270,3.4,7.6,27,0.00,,,0.00,WUHU216HW,2013-04-19 21:25:00,
2013-04-19 16:30:00,67.7,31.2,29.97,WNW,293,5.4,6.3,26,0.00,,,0.00,WUHU216HW,2013-04-19 21:30:00,
2013-04-19 16:35:00,67.7,30.3,29.97,NW,315,2.7,6.3,25,0.00,,,0.00,WUHU216HW,2013-04-19 21:35:00,
2013-04-19 16:40:00,67.7,31.2,29.97,NW,315,3.1,4.5,26,0.00,,,0.00,WUHU216HW,2013-04-19 21:40:00,
2013-04-19 16:45:00,67.5,30.1,29.97,NNE,23,1.8,6.9,25,0.00,,,0.00,WUHU216HW,2013-04-19 21:45:00,
2013-04-19 16:50:00,67.5,31.1,29.97,NW,315,0.9,6.9,26,0.00,,,0.00,WUHU216HW,2013-04-19 21:50:00,
2013-04-19 16:55:00,67.5,31.1,29.97,WNW,293,1.6,5.1,26,0.00,,,0.00,WUHU216HW,2013-04-19 21:55:00,
2013-04-19 17:00:00,67.3,30.9,29.97,NE,45,2.9,5.1,26,0.00,,,0.00,WUHU216HW,2013-04-19 22:00:00,
2013-04-19 17:05:00,66.8,28.5,29.96,NE,45,5.8,6.0,24,0.00,,,0.00,WUHU216HW,2013-04-19 22:05:00,
2013-04-19 17:10:00,66.2,28.0,29.96,NNE,23,5.4,6.0,24,0.00,,,0.00,WUHU216HW,2013-04-19 22:10:00,
2013-04-19 17:15:00,66.1,28.8,29.96,WNW,293,3.4,6.3,25,0.00,,,0.00,WUHU216HW,2013-04-19 22:15:00,
2013-04-19 17:20:00,66.1,29.8,29.96,NNW,338,1.8,6.3,26,0.00,,,0.00,WUHU216HW,2013-04-19 22:20:00,
2013-04-19 17:25:00,66.1,29.8,29.96,WSW,248,3.6,4.3,26,0.00,,,0.00,WUHU216HW,2013-04-19 22:25:00,
2013-04-19 17:30:00,65.9,31.7,29.96,NW,315,1.1,4.3,28,0.00,,,0.00,WUHU216HW,2013-04-19 22:30:00,
2013-04-19 17:35:00,65.7,29.5,29.96,West,270,1.3,2.7,26,0.00,,,0.00,WUHU216HW,2013-04-19 22:35:00,
2013-04-19 17:40:00,65.5,31.4,29.96,SSW,203,1.8,4.0,28,0.00,,,0.00,WUHU216HW,2013-04-19 22:40:00,
2013-04-19 17:45:00,65.3,30.3,29.95,WNW,293,1.1,4.0,27,0.00,,,0.00,WUHU216HW,2013-04-19 22:45:00,
2013-04-19 17:50:00,65.2,28.1,29.96,WNW,293,3.6,5.4,25,0.00,,,0.00,WUHU216HW,2013-04-19 22:50:00,
2013-04-19 17:55:00,65.0,28.9,29.96,ENE,68,3.8,5.4,26,0.00,,,0.00,WUHU216HW,2013-04-19 22:55:00,
2013-04-19 18:00:00,64.6,28.6,29.95,NNW,338,3.1,3.8,26,0.00,,,0.00,WUHU216HW,2013-04-19 23:00:00,
2013-04-19 18:05:00,64.4,27.5,29.95,SE,135,1.1,3.1,25,0.00,,,0.00,WUHU216HW,2013-04-19 23:05:00,
2013-04-19 18:10:00,64.1,28.2,29.95,NE,45,3.4,7.6,26,0.00,,,0.00,WUHU216HW,2013-04-19 23:10:00,
2013-04-19 18:15:00,64.1,27.2,29.95,SW,225,2.0,7.6,25,0.00,,,0.00,WUHU216HW,2013-04-19 23:15:00,
2013-04-19 18:20:00,63.9,27.0,29.95,WNW,293,1.1,5.4,25,0.00,,,0.00,WUHU216HW,2013-04-19 23:20:00,
2013-04-19 18:25:00,63.7,26.8,29.95,West,270,2.9,5.4,25,0.00,,,0.00,WUHU216HW,2013-04-19 23:25:00,
2013-04-19 18:30:00,63.5,28.6,29.95,WNW,293,1.3,2.9,27,0.00,,,0.00,WUHU216HW,2013-04-19 23:30:00,
2013-04-19 18:35:00,63.2,28.4,29.95,North,0,0.4,4.0,27,0.00,,,0.00,WUHU216HW,2013-04-19 23:35:00,
2013-04-19 18:40:00,63.0,28.2,29.95,West,270,1.1,4.0,27,0.00,,,0.00,WUHU216HW,2013-04-19 23:40:00,
2013-04-19 18:45:00,62.6,27.9,29.95,NE,45,1.8,3.8,27,0.00,,,0.00,WUHU216HW,2013-04-19 23:45:00,
2013-04-19 18:50:00,62.5,28.7,29.95,NE,45,1.1,3.1,28,0.00,,,0.00,WUHU216HW,2013-04-19 23:50:00,
2013-04-19 18:55:00,62.3,27.5,29.95,NE,45,2.7,3.4,27,0.00,,,0.00,WUHU216HW,2013-04-19 23:55:00,
2013-04-19 19:00:00,62.1,27.4,29.95,NE,45,2.2,5.4,27,0.00,,,0.00,WUHU216HW,2013-04-20 00:00:00,
2013-04-19 19:05:00,61.9,27.3,29.95,NNE,23,2.5,5.4,27,0.00,,,0.00,WUHU216HW,2013-04-20 00:05:00,
2013-04-19 19:10:00,61.6,27.9,29.95,NNE,23,2.5,4.7,28,0.00,,,0.00,WUHU216HW,2013-04-20 00:10:00,
2013-04-19 19:15:00,61.2,27.5,29.95,ENE,68,0.2,2.5,28,0.00,,,0.00,WUHU216HW,2013-04-20 00:15:00,
2013-04-19 19:20:00,60.8,27.3,29.95,ENE,68,2.0,2.0,28,0.00,,,0.00,WUHU216HW,2013-04-20 00:20:00,
2013-04-19 19:25:00,60.5,27.0,29.95,NNE,23,2.2,2.2,28,0.00,,,0.00,WUHU216HW,2013-04-20 00:25:00,
2013-04-19 19:30:00,60.1,27.6,29.95,NNE,23,0.0,3.4,29,0.00,,,0.00,WUHU216HW,2013-04-20 00:30:00,
2013-04-19 19:35:00,59.4,27.0,29.95,NNE,23,0.0,3.4,29,0.00,,,0.00,WUHU216HW,2013-04-20 00:35:00,
2013-04-19 19:40:00,58.9,26.6,29.95,NNE,23,0.0,1.3,29,0.00,,,0.00,WUHU216HW,2013-04-20 00:40:00,
2013-04-19 19:45:00,58.5,27.3,29.95,NNE,23,0.0,0.0,30,0.00,,,0.00,WUHU216HW,2013-04-20 00:45:00,
2013-04-19 19:50:00,57.6,27.1,29.95,NNE,23,0.0,0.0,31,0.00,,,0.00,WUHU216HW,2013-04-20 00:50:00,
2013-04-19 19:55:00,56.9,27.9,29.95,NNE,23,0.0,0.0,33,0.00,,,0.00,WUHU216HW,2013-04-20 00:55:00,
2013-04-19 20:00:00,55.8,27.6,29.96,NNE,23,0.0,0.0,34,0.00,,,0.00,WUHU216HW,2013-04-20 01:00:00,
2013-04-19 20:05:00,54.9,28.3,29.95,NNE,23,0.0,0.0,36,0.00,,,0.00,WUHU216HW,2013-04-20 01:05:00,
2013-04-19 20:10:00,54.0,28.8,29.96,NNE,23,0.0,0.0,38,0.00,,,0.00,WUHU216HW,2013-04-20 01:10:00,
2013-04-19 20:15:00,52.9,28.5,29.96,NNE,23,0.0,0.0,39,0.00,,,0.00,WUHU216HW,2013-04-20 01:15:00,
2013-04-19 20:20:00,52.2,28.6,29.96,NNE,23,0.0,0.0,40,0.00,,,0.00,WUHU216HW,2013-04-20 01:20:00,
2013-04-19 20:25:00,51.3,29.4,29.96,NNE,23,0.0,0.0,43,0.00,,,0.00,WUHU216HW,2013-04-20 01:25:00,
2013-04-19 20:30:00,50.4,29.2,29.96,NNE,23,0.0,0.2,44,0.00,,,0.00,WUHU216HW,2013-04-20 01:30:00,
2013-04-19 20:35:00,49.9,29.8,29.97,NNE,23,0.0,0.2,46,0.00,,,0.00,WUHU216HW,2013-04-20 01:35:00,
2013-04-19 20:40:00,49.3,29.4,29.97,NNE,23,0.0,0.0,46,0.00,,,0.00,WUHU216HW,2013-04-20 01:40:00,
2013-04-19 20:45:00,49.0,30.1,29.97,NNE,23,1.1,1.1,48,0.00,,,0.00,WUHU216HW,2013-04-20 01:45:00,
2013-04-19 20:50:00,48.6,30.3,29.97,NW,315,1.3,1.3,49,0.00,,,0.00,WUHU216HW,2013-04-20 01:50:00,
2013-04-19 20:55:00,48.2,30.9,29.97,NW,315,0.0,1.3,51,0.00,,,0.00,WUHU216HW,2013-04-20 01:55:00,
2013-04-19 21:00:00,47.9,31.5,29.98,NW,315,0.4,1.1,53,0.00,,,0.00,WUHU216HW,2013-04-20 02:00:00,
2013-04-19 21:05:00,47.2,31.8,29.98,West,270,1.3,2.0,55,0.00,,,0.00,WUHU216HW,2013-04-20 02:05:00,
2013-04-19 21:10:00,46.8,31.9,29.98,West,270,0.4,2.0,56,0.00,,,0.00,WUHU216HW,2013-04-20 02:10:00,
2013-04-19 21:15:00,46.4,32.0,29.98,West,270,2.0,2.2,57,0.00,,,0.00,WUHU216HW,2013-04-20 02:15:00,
2013-04-19 21:20:00,45.9,32.0,29.98,WSW,248,0.9,2.2,58,0.00,,,0.00,WUHU216HW,2013-04-20 02:20:00,
2013-04-19 21:25:00,45.5,32.0,29.99,WSW,248,1.8,1.8,59,0.00,,,0.00,WUHU216HW,2013-04-20 02:25:00,
2013-04-19 21:30:00,45.2,32.1,29.99,West,270,2.9,2.9,60,0.00,,,0.00,WUHU216HW,2013-04-20 02:30:00,
2013-04-19 21:35:00,45.0,32.4,29.99,West,270,1.8,2.9,61,0.00,,,0.00,WUHU216HW,2013-04-20 02:35:00,
2013-04-19 21:40:00,44.5,32.2,29.99,West,270,1.8,2.9,62,0.00,,,0.00,WUHU216HW,2013-04-20 02:40:00,
2013-04-19 21:45:00,44.1,32.0,29.99,West,270,0.9,2.5,62,0.00,,,0.00,WUHU216HW,2013-04-20 02:45:00,
2013-04-19 21:50:00,43.7,32.0,29.99,WSW,248,0.2,2.5,63,0.00,,,0.00,WUHU216HW,2013-04-20 02:50:00,
2013-04-19 21:55:00,43.4,32.0,29.99,West,270,0.7,1.1,64,0.00,,,0.00,WUHU216HW,2013-04-20 02:55:00,
2013-04-19 22:00:00,43.2,31.8,29.99,West,270,0.4,1.3,64,0.00,,,0.00,WUHU216HW,2013-04-20 03:00:00,
2013-04-19 22:05:00,42.8,31.9,29.99,West,270,1.1,2.9,65,0.00,,,0.00,WUHU216HW,2013-04-20 03:05:00,
2013-04-19 22:10:00,42.5,31.5,30.00,West,270,0.9,2.9,65,0.00,,,0.00,WUHU216HW,2013-04-20 03:10:00,
2013-04-19 22:15:00,42.1,31.1,30.00,West,270,0.4,2.5,65,0.00,,,0.00,WUHU216HW,2013-04-20 03:15:00,
2013-04-19 22:20:00,41.8,31.2,30.00,West,270,0.4,0.9,66,0.00,,,0.00,WUHU216HW,2013-04-20 03:20:00,
2013-04-19 22:25:00,41.4,31.2,30.00,West,270,0.0,1.1,67,0.00,,,0.00,WUHU216HW,2013-04-20 03:25:00,
2013-04-19 22:30:00,41.2,31.1,30.00,West,270,0.9,1.1,67,0.00,,,0.00,WUHU216HW,2013-04-20 03:30:00,
2013-04-19 22:35:00,40.9,30.7,30.00,West,270,0.9,1.1,67,0.00,,,0.00,WUHU216HW,2013-04-20 03:35:00,
2013-04-19 22:40:00,40.7,30.5,30.01,West,270,1.1,1.8,67,0.00,,,0.00,WUHU216HW,2013-04-20 03:40:00,
2013-04-19 22:45:00,40.3,30.2,30.01,West,270,0.0,1.8,67,0.00,,,0.00,WUHU216HW,2013-04-20 03:45:00,
2013-04-19 22:50:00,40.0,29.8,30.01,West,270,1.1,1.1,67,0.00,,,0.00,WUHU216HW,2013-04-20 03:50:00,
2013-04-19 22:55:00,39.8,30.1,30.01,West,270,0.2,1.1,68,0.00,,,0.00,WUHU216HW,2013-04-20 03:55:00,
2013-04-19 23:00:00,39.6,30.3,30.01,West,270,0.4,1.1,69,0.00,,,0.00,WUHU216HW,2013-04-20 04:00:00,
2013-04-19 23:01:00,39.6,30.3,30.01,West,270,0.4,1.1,69,0.00,,,0.00,WUHU216HW,2013-04-20 04:01:00,
2013-04-19 23:06:00,39.2,30.2,30.01,West,270,0.0,1.1,70,0.00,,,0.00,WUHU216HW,2013-04-20 04:06:00,
2013-04-19 23:11:00,39.1,30.1,30.01,West,270,0.0,0.0,70,0.00,,,0.00,WUHU216HW,2013-04-20 04:11:00,
2013-04-19 23:16:00,38.7,29.8,30.01,West,270,0.2,1.3,70,0.00,,,0.00,WUHU216HW,2013-04-20 04:16:00,
2013-04-19 23:21:00,38.5,30.0,30.01,West,270,0.0,1.3,71,0.00,,,0.00,WUHU216HW,2013-04-20 04:21:00,
2013-04-19 23:26:00,38.2,29.6,30.01,West,270,0.0,0.0,71,0.00,,,0.00,WUHU216HW,2013-04-20 04:26:00,
2013-04-19 23:31:00,38.2,29.6,30.01,West,270,0.0,0.0,71,0.00,,,0.00,WUHU216HW,2013-04-20 04:31:00,
2013-04-19 23:36:00,38.0,29.8,30.01,West,270,0.0,0.0,72,0.00,,,0.00,WUHU216HW,2013-04-20 04:36:00,
2013-04-19 23:41:00,37.6,29.4,30.01,West,270,0.0,0.2,72,0.00,,,0.00,WUHU216HW,2013-04-20 04:41:00,
2013-04-19 23:46:00,37.4,29.6,30.01,West,270,0.2,0.2,73,0.00,,,0.00,WUHU216HW,2013-04-20 04:46:00,
2013-04-19 23:51:00,37.3,29.4,30.00,West,270,0.7,0.7,73,0.00,,,0.00,WUHU216HW,2013-04-20 04:51:00,
2013-04-19 23:56:00,37.3,29.7,30.00,West,270,0.0,1.1,74,0.00,,,0.00,WUHU216HW,2013-04-20 04:56:00,